Location: General Nathan Twining Observatory
(34.5931°N, 106.8201°W)
Time: 01:57:17
(UTC-06:00)

Daily predictions for brighter satellites

Satellite Brightness Start Highest point End
(mag) Time Altitude Azimuth Time Altitude Azimuth Time Altitude Azimuth
Terra 4.3 00:26:32 14° WNW 00:26:32 14° WNW 00:27:49 10° WNW
Cosmos 2369 Rocket 3.7 00:21:24 10° NW 00:24:43 28° WNW 00:24:43 28° WNW
COSMOS 2406 4.1 00:37:43 46° N 00:37:43 46° N 00:41:50 10° NNE
ATLAS 3B R/B 4.3 00:39:56 17° W 00:44:47 31° NW 00:51:22 10° NNE
Cosmos 2082 Rocket 4.2 01:11:43 18° ENE 01:11:43 18° ENE 01:13:49 10° NE
USA 215 4.1 01:13:02 10° NE 01:17:12 38° ENE 01:17:12 38° ENE
Cosmos 1553 Rocket 4.4 01:21:05 10° N 01:26:06 59° NNW 01:26:06 59° NNW
CZ-4C R/B 3.2 01:34:00 43° NNE 01:34:00 43° NNE 01:37:57 10° NNE
Timation 2 Rocket 4.3 01:42:24 70° NNE 01:42:24 70° NNE 01:48:24 10° NNE
NOSS 3-2 (C) 3.8 01:46:58 60° N 01:46:58 60° N 01:52:32 10° NNE
Cosmos 2266 Rocket 4.3 01:55:39 64° NNW 01:55:39 64° NNW 02:01:05 10° N
CENTAUR R/B 3.8 01:57:54 28° E 01:57:54 28° E 02:02:14 10° NE
CZ-2C R/B 4.1 02:10:39 43° NNW 02:10:39 43° NNW 02:14:25 10° NNW
Cosmos 2344 3.5 02:08:27 76° WSW 02:09:01 81° WNW 02:17:31 10° NNE
Cosmos 2369 4.3 02:03:40 10° NNW 02:07:56 52° N 02:07:56 52° N
BREEZE-M TANK 3.8 01:58:23 10° WSW 02:12:38 61° NNW 02:16:15 10° NE
CZ-2C R/B 4.0 02:08:16 10° N 02:12:11 31° NW 02:12:11 31° NW
Cosmos 1867 4.3 02:18:03 50° N 02:18:03 50° N 02:22:16 10° NNE
ASTEX 1 4.4 02:27:24 10° N 02:30:48 42° NNW 02:30:48 42° NNW
Cosmos 1763 Rocket 4.5 02:30:53 10° NNW 02:34:20 40° NW 02:34:20 40° NW
Cosmos 1980 Rocket 3.7 02:37:11 10° N 02:42:12 32° ENE 02:45:46 17° ESE
Cosmos 2058 4.4 02:48:30 35° N 02:48:30 35° N 02:50:58 10° N
SL-08 R/B 4.3 02:47:17 81° ESE 02:47:24 82° E 02:53:31 10° N
Cosmos 540 Rocket 4.2 02:46:46 10° N 02:51:46 49° ENE 02:52:28 46° E
ERS-2 4.2 02:49:27 10° N 02:51:10 26° N 02:51:10 26° N
Cosmos 2082 Rocket 3.0 02:53:33 40° NW 02:53:33 40° NW 02:58:32 10° N
Meteor 2-11 Rocket 4.4 02:55:40 10° NNW 03:01:44 69° W 03:01:44 69° W
AQUA 4.0 02:57:21 10° NNE 03:01:31 67° NNE 03:01:31 67° NNE
USA 215 4.1 02:56:12 10° NNE 03:02:13 41° NW 03:04:32 31° W
SEDSat Delta rocket 4.3 03:03:54 49° SE 03:03:54 49° SE 03:09:32 10° E
Cosmos 1697 Rocket 2.6 02:59:03 10° NNW 03:04:45 86° ENE 03:05:05 80° SE
Meteor 1-27 4.2 02:59:47 10° N 03:05:40 84° E 03:06:15 73° SSE
NPP 3.6 03:01:43 10° N 03:07:00 73° WNW 03:07:00 73° WNW
CZ-2D R/B 3.9 03:04:18 10° NE 03:08:27 24° E 03:10:33 19° SE
SL-16 R/B 4.2 03:04:48 10° SE 03:10:10 31° ENE 03:15:32 10° N
Cosmos 1833 Rocket 3.5 03:10:56 37° WNW 03:11:00 37° WNW 03:16:13 10° N
Cosmos 1455 4.5 03:09:25 10° NNE 03:12:14 19° ENE 03:13:22 17° E
Spot 4 Rocket 4.2 03:11:20 10° NNE 03:16:28 64° ESE 03:17:02 59° SE
Cosmos 783 Rocket 4.3 03:12:47 10° NNW 03:18:05 83° WSW 03:18:09 83° SW
Cosmos 1703 4.0 03:19:05 53° NNE 03:19:05 53° NNE 03:22:14 10° N
Cosmos 968 Rocket 3.4 03:18:16 69° SE 03:18:33 71° ESE 03:23:39 10° NNE
Cosmos 1633 Rocket 3.7 03:22:00 46° NW 03:22:00 46° NW 03:25:27 10° N
SL-08 R/B 3.6 03:25:25 56° WNW 03:25:25 56° WNW 03:29:35 10° NNW
CBERS 1 LM4 rocket 4.5 03:19:25 10° N 03:24:53 77° WNW 03:25:27 69° SW
ATLAS 5 CENTAUR R/B 3.8 03:26:43 16° SE 03:28:12 18° ESE 03:31:31 10° ENE
Atlas Centaur 2 3.9 03:33:10 23° SSE 03:33:10 23° SSE 03:36:01 10° SE
ADEOS 3.5 03:27:42 10° N 03:32:54 71° WNW 03:33:32 64° WSW
Cosmos 1726 3.7 03:32:37 10° NNW 03:34:30 26° NW 03:34:30 26° NW
Cosmos 1470 Rocket 3.4 03:36:22 82° W 03:36:25 82° W 03:40:53 10° N
Cosmos 332 Rocket 3.6 03:31:57 10° NNW 03:36:46 87° WSW 03:37:26 67° S
Cosmos 1745 Rocket 4.4 03:36:30 42° WSW 03:37:26 45° W 03:43:30 10° N
Meteor 1-4 Rocket 3.5 03:33:55 10° N 03:37:33 46° E 03:38:08 42° ESE
SL-16 R/B 3.7 03:33:10 10° N 03:38:20 35° ENE 03:43:28 10° SE
Cosmos 1777 Rocket 4.1 03:39:55 48° S 03:41:19 71° ESE 03:46:36 10° NNE
Cosmos 1933 Rocket 3.4 03:41:26 74° W 03:41:28 74° W 03:45:51 10° N
Lacrosse 5 2.9 03:38:15 10° NNW 03:43:07 46° NE 03:47:58 10° ESE
Cosmos 1271 Rocket 3.0 03:41:58 10° N 03:45:44 62° E 03:46:13 55° ESE
CENTAUR R/B 3.2 03:45:04 32° W 03:47:05 40° NW 03:53:25 10° NNE
Meteor 2-10 4.0 03:42:05 10° N 03:47:18 89° E 03:49:37 35° S
IRS-1D 3.6 03:43:06 10° NNE 03:48:28 79° ESE 03:50:26 40° S
Cosmos 1709 Rocket 3.9 03:46:49 38° S 03:49:26 84° W 03:55:46 10° N
Cosmos 1626 2.0 03:50:38 87° SE 03:50:40 88° E 03:54:25 10° N
Nadezhda 1 Rocket 4.2 03:44:49 10° NNW 03:50:43 49° W 03:52:04 42° SW
Cosmos 2322 Rocket 3.0 03:48:15 10° N 03:53:44 51° ENE 03:59:10 10° SE
ARIANE 5 R/B 2.4 03:49:26 10° N 03:54:34 80° WNW 03:56:07 45° SSW
Okean O Rocket 3.2 03:54:38 10° NE 03:58:34 30° E 04:01:43 14° SSE
BREEZE-M DEB (TANK) 4.4 03:57:23 37° WSW 03:59:48 78° NW 04:18:09 10° NE
OAO 1 Rocket 4.4 03:57:57 31° W 04:00:35 85° N 04:06:00 10° E
Cosmos 2292 Rocket 2.8 04:07:40 61° NW 04:07:40 61° NW 04:10:25 10° N
MTI 3.9 04:11:43 36° SSE 04:12:57 79° ENE 04:16:19 10° N
Resurs 1-4 Rocket 2.1 04:10:08 10° N 04:15:26 73° WNW 04:18:14 29° SSW
Cosmos 2221 Rocket 4.2 04:14:20 10° N 04:18:46 59° E 04:23:13 10° SSE
Cosmos 1862 Rocket 3.9 04:15:20 10° NNW 04:19:36 44° W 04:20:50 35° SW
OAO 3 Rocket 3.0 04:18:02 33° WSW 04:20:06 82° S 04:24:51 10° E
GPS 2-05 Rocket1 3.3 04:24:05 39° S 04:24:36 43° SSE 04:27:56 10° E
Cosmos 1980 Rocket 3.0 04:21:16 10° NW 04:26:03 29° WSW 04:27:26 26° SW
Cosmos 2360 Rocket 4.0 04:21:56 10° N 04:27:01 33° ENE 04:32:04 10° SE
Cosmos 1346 3.0 04:26:31 50° SW 04:27:06 65° W 04:30:09 10° N
CZ-4B R/B 3.8 04:22:54 10° NNE 04:28:15 56° E 04:33:40 10° S
Centaur D-1A AC-32 3.7 04:26:32 26° SW 04:29:17 45° SSE 04:47:47 10° E
Cosmos 2219 4.4 04:24:09 10° S 04:29:22 38° ESE 04:34:37 10° NE
Cosmos 371 Rocket 3.8 04:25:48 10° NW 04:30:13 36° W 04:32:13 25° SSW
ASTRO F (AKARI) 4.3 04:30:04 13° SSE 04:33:02 90° ENE 04:36:19 10° NNW
CZ-4B R/B 4.0 04:30:12 10° NNE 04:33:59 42° E 04:37:57 10° S
Cosmos 2181 Rocket 4.3 04:32:32 10° NNW 04:38:21 46° W 04:43:24 14° SSW
Cosmos 1869 4.1 04:35:38 10° NNW 04:39:11 32° W 04:40:30 25° SW
Cosmos 1869 Rocket 3.5 04:38:21 20° SSW 04:41:17 65° W 04:45:39 10° N
PAYLOAD B 4.3 04:36:10 10° NNE 04:41:41 78° ESE 04:47:12 10° S
UNKNOWN OBJECT B 3.3 04:39:29 10° N 04:43:01 39° WNW 04:44:51 23° SW
CZ-4B DEB 4.5 04:37:56 10° NNE 04:43:25 69° ESE 04:48:54 10° S
SL-08 ROCKET BODY 4.4 04:40:37 10° S 04:46:34 84° W 04:52:41 10° N
Cosmos 1455 3.6 04:45:04 10° NW 04:47:50 19° W 04:48:22 19° W
CZ-2D R/B 2.9 04:43:50 10° N 04:48:32 35° WNW 04:51:53 17° SW
SEDSat Delta rocket 4.0 04:44:00 15° W 04:49:42 68° S 04:55:54 10° E
Cosmos 2298 Rocket 4.2 04:45:25 10° S 04:50:40 77° ESE 04:56:01 10° NNE
Cosmos 1933 3.6 04:48:47 10° NNW 04:52:39 47° W 04:56:30 10° SSW
SL-16 R/B 3.1 04:47:55 10° SSW 04:53:36 37° W 04:59:19 10° NNW
Cosmos 304 Rocket 3.7 04:49:01 10° NNW 04:53:52 85° WSW 04:58:41 10° SSE
Cosmos 2154 Rocket 4.4 04:49:33 10° S 04:55:47 67° E 05:02:05 10° NNE
IRS-1C Rocket 4.4 04:51:42 10° N 04:56:49 52° WNW 05:01:31 12° SSW
Cosmos 1833 4.4 04:52:44 15° SW 04:57:33 63° WNW 05:03:16 10° NNE
Cosmos 1892 3.9 04:57:54 10° SSE 05:01:36 43° E 05:05:19 10° NNE
Lacrosse 5 rocket 2.2 04:59:41 10° NNW 05:04:08 59° NE 05:08:39 10° SE
Meteor 2-3 Rocket 3.8 04:58:46 10° S 05:04:30 88° W 05:10:20 10° N
PSLV R/B 4.4 05:02:23 10° N 05:06:02 39° WNW 05:09:28 12° SW
ATLAS 5 CENTAUR R/B 2.4 05:08:17 13° SW 05:12:24 44° NW 05:17:20 10° NNE
Thor Agena Rocket 3.8 05:11:26 10° S 05:16:34 53° W 05:21:44 10° NNW
Cosmos 389 Rocket 3.4 05:13:49 10° N 05:17:27 54° E 05:21:04 10° SSE
Atlas Centaur 2 4.3 05:15:58 10° SW 05:18:01 11° SW 05:19:59 10° SSW
Cosmos 1733 Rocket 3.2 05:14:06 10° S 05:18:25 81° E 05:22:45 10° N
Meteor 2-10 Rocket 4.4 05:15:13 10° N 05:20:08 53° E 05:25:09 10° SSE
Cosmos 1680 Rocket 4.0 05:15:45 10° NW 05:20:32 38° W 05:25:18 10° SSW
SL-16 R/B 3.1 05:17:32 10° NW 05:22:14 27° WSW 05:26:54 10° SSW
FALCON 9 R/B 0.3 05:23:28 10° W 05:25:37 86° S 05:29:11 10° E
Lacrosse 5 2.9 05:21:50 10° WNW 05:25:46 23° WSW 05:29:42 10° S
Feng Yun 1-1 Rocket 4.4 05:26:12 10° NNE 05:31:57 86° WNW 05:37:48 10° SSW
Cosmos 990 Rocket 4.2 05:27:37 10° S 05:32:47 76° ESE 05:37:57 10° NNE
BREEZE-M DEB (TANK) 3.6 05:23:22 10° WSW 05:33:28 52° NW 05:36:42 10° NE
Okean O Rocket 3.2 05:31:29 10° NNW 05:34:42 20° WNW 05:37:54 10° WSW
